User: anonymous   Login
Location: Caltech
(34.1382°N, 118.1253°W)
Time: 08:16:27
(UTC-07:00)
Language:

Cosmos 2219 Rocket - Orbit

View from above orbital plane
View from above orbital plane
View from above satellite
View from above satellite

Ground track
Ground track

The orbit data is extracted from the following two-line orbital elements,

1 22220U 92076B   18111.23732186  .00000163  00000-0  10593-3 0  9997
2 22220  70.9980 130.8108 0012438 173.8455 258.7416 14.16431077314392
Epoch (UTC): 21 April 2018 05:41:44
Eccentricity: 0.0012438
inclination: 70.9980°
perigee height: 828 km
apogee height: 846 km
right ascension of ascending node: 130.8108°
argument of perigee: 173.8455°
revolutions per day: 14.16431077
mean anomaly at epoch: 258.7416°
orbit number at epoch: 31439

The dashed part of the orbit path shows where the satellite is in the earth's shadow,  

DLR